Télécharger nos applis :
Date Heure Temperature Direction Vent Rafales Pluie Pression Humidité Condition
VEN.
24
02:00 11°C 10 10 --- 1019 hPa 83% Ensoleillé / Ciel clair
05:00 10°C 5 5 --- 1018 hPa 84% Ciel voilé
08:00 10°C 5 5 --- 1019 hPa 86% Peu nuageux
11:00 13°C 5 5 0.4 mm 1019 hPa 77% Ciel voilé
14:00 14°C 10 10 0.5 mm 1019 hPa 69% Ciel voilé
17:00 14°C 10 10 --- 1019 hPa 64% Peu nuageux
20:00 14°C 5 5 --- 1018 hPa 67% Ciel voilé
23:00 11°C 5 5 --- 1019 hPa 80% Ensoleillé / Ciel clair
SAM.
25
02:00 10°C 10 10 --- 1019 hPa 87% Ciel voilé
05:00 10°C 10 10 --- 1018 hPa 89% Couvert
08:00 11°C 10 10 --- 1017 hPa 87% Couvert
11:00 14°C 15 15 --- 1017 hPa 79% Couvert
14:00 15°C 15 20 --- 1016 hPa 73% Couvert
17:00 16°C 15 20 --- 1015 hPa 72% Couvert
20:00 14°C 10 20 --- 1015 hPa 83% Couvert
23:00 14°C 15 25 --- 1016 hPa 81% Couvert
DIM.
26
02:00 14°C 20 25 --- 1016 hPa 76% Couvert
05:00 13°C 20 25 --- 1016 hPa 83% Couvert
08:00 13°C 20 25 0.1 mm 1017 hPa 83% Couvert
11:00 14°C 20 25 0.2 mm 1018 hPa 75% Ciel voilé
14:00 15°C 25 25 0.1 mm 1019 hPa 72% Ciel voilé
17:00 14°C 25 25 0.3 mm 1019 hPa 74% Averses de pluie faible
20:00 13°C 20 20 0.2 mm 1019 hPa 77% Averses de pluie faible
23:00 12°C 15 20 0.2 mm 1020 hPa 77% Averses de pluie faible
LUN.
27
02:00 12°C 15 20 0.1 mm 1020 hPa 76% Couvert
05:00 11°C 15 20 0.4 mm 1020 hPa 77% Averses de pluie faible
08:00 11°C 15 20 0.2 mm 1020 hPa 73% Peu nuageux
11:00 13°C 15 15 0.2 mm 1020 hPa 69% Averses de pluie faible
14:00 14°C 25 25 0.3 mm 1021 hPa 65% Averses de pluie faible
17:00 13°C 25 25 --- 1021 hPa 61% Ciel voilé
20:00 13°C 25 30 0.2 mm 1022 hPa 68% Ciel voilé
23:00 11°C 20 25 --- 1023 hPa 69% Ensoleillé / Ciel clair
MAR.
28
02:00 11°C 20 25 --- 1023 hPa 75% Ensoleillé / Ciel clair
05:00 12°C 20 25 0.2 mm 1023 hPa 78% Averses de pluie faible
08:00 13°C 20 25 0.2 mm 1023 hPa 78% Averses de pluie faible
11:00 13°C 20 25 0.1 mm 1024 hPa 82% Couvert
14:00 13°C 20 30 0.2 mm 1024 hPa 88% Averses de pluie faible
17:00 14°C 20 25 0.9 mm 1023 hPa 85% Averses de pluie faible
20:00 14°C 20 25 0.5 mm 1024 hPa 84% Averses de pluie faible
23:00 13°C 15 20 --- 1024 hPa 88% Couvert
MER.
29
02:00 13°C 10 15 --- 1024 hPa 86% Couvert
05:00 12°C 10 10 --- 1023 hPa 88% Couvert
08:00 13°C 5 10 --- 1023 hPa 85% Peu nuageux
11:00 15°C 10 10 --- 1024 hPa 75% Peu nuageux
14:00 16°C 10 10 --- 1023 hPa 73% Peu nuageux
17:00 16°C 10 10 --- 1022 hPa 72% Couvert
20:00 15°C 10 10 --- 1022 hPa 76% Peu nuageux
23:00 13°C 10 10 --- 1022 hPa 87% Couvert
JEU.
30
02:00 12°C 5 10 --- 1021 hPa 87% Couvert
05:00 12°C 5 10 --- 1020 hPa 87% Couvert
08:00 14°C 5 10 --- 1020 hPa 84% Couvert
11:00 16°C 10 15 --- 1020 hPa 73% Couvert
14:00 16°C 15 15 --- 1020 hPa 69% Couvert
17:00 16°C 15 15 --- 1019 hPa 72% Couvert
20:00 15°C 15 20 --- 1018 hPa 81% Couvert
23:00 14°C 15 25 --- 1019 hPa 94% Couvert
VEN.
31
02:00 12°C 20 30 --- 1019 hPa 89% Peu nuageux
05:00 10°C 15 20 --- 1019 hPa 83% Peu nuageux
08:00 10°C 15 20 --- 1020 hPa 81% Ciel voilé
11:00 15°C 15 20 --- 1020 hPa 66% Ensoleillé / Ciel clair
14:00 18°C 10 15 --- 1020 hPa 60% Ensoleillé / Ciel clair
17:00 19°C 15 20 --- 1019 hPa 59% Ensoleillé / Ciel clair
20:00 17°C 15 20 --- 1019 hPa 71% Ciel voilé
23:00 15°C 20 30 --- 1020 hPa 76% Couvert
SAM.
01
02:00 11°C 15 20 --- 1020 hPa 90% Ciel voilé
05:00 10°C 15 15 --- 1020 hPa 90% Ciel voilé
08:00 10°C 15 25 --- 1021 hPa 81% Ciel voilé
11:00 15°C 15 20 --- 1022 hPa 64% Ensoleillé / Ciel clair
14:00 17°C 15 15 --- 1022 hPa 61% Ensoleillé / Ciel clair
17:00 18°C 25 20 --- 1021 hPa 66% Peu nuageux
20:00 16°C 20 30 --- 1022 hPa 76% Ciel voilé
23:00 13°C 20 15 --- 1024 hPa 84% Ciel voilé
DIM.
02
02:00 10°C 20 30 --- 1024 hPa 91% Ciel voilé
05:00 9°C 15 25 --- 1024 hPa 91% Peu nuageux
08:00 9°C 15 25 --- 1025 hPa 85% Peu nuageux
11:00 13°C 15 15 --- 1026 hPa 67% Couvert
14:00 16°C 15 15 --- 1025 hPa 62% Couvert
17:00 16°C 20 20 --- 1025 hPa 72% Couvert
20:00 14°C 15 20 --- 1024 hPa 82% Couvert
23:00 14°C 15 20 --- 1025 hPa 86% Couvert
LUN.
03
02:00 14°C 10 15 --- 1024 hPa 90% Couvert